User: anonymous   Login
Location: Unspecified
(0.0000°N, 0.0000°E)
Time: 18:51:52
(UTC+00:00)
Language:

GALILEO 12 (269) - Orbit

View from above orbital plane
View from above orbital plane
View from above satellite
View from above satellite

Ground track
Ground track

The orbit data is extracted from the following two-line orbital elements,

1 41174U 15079A   23337.23720987  .00000054  00000-0  00000-0 0  9994
2 41174  55.3404 126.7283 0001681 335.9466  24.0206  1.70474609 48971
Epoch (UTC): 03 December 2023 05:41:34
Eccentricity: 0.0001681
inclination: 55.3404°
perigee height: 23217 km
apogee height: 23227 km
right ascension of ascending node: 126.7283°
argument of perigee: 335.9466°
revolutions per day: 1.70474609
mean anomaly at epoch: 24.0206°
orbit number at epoch: 4897

The dashed part of the orbit path shows where the satellite is in the earth's shadow,  

DLR